Theta_e
321 320 320 320 321 322 323 323 323 324 324 324 324 324 325 326 325 322 311 323 327 352 346 322 320 319 319 317 322 324 310 308 314 316 317 333 330 336 338 332 334 335 334 339 344
320 319 319 319 319 320 321 322 323 323 323 323 324 324 326 326 319 315 329 349 354 346 320 319 317 317 313 314 315 316 307 311 317 315 317 331 332 334 333 329 333 335 335 342 343
320 319 319 319 319 319 319 321 322 322 322 322 323 325 326 324 309 312 348 353 355 337 320 319 317 313 310 311 313 316 309 315 322 319 319 326 332 336 332 327 332 329 334 340 342
319 319 319 319 319 319 319 319 320 321 322 322 323 325 326 317 300 315 349 351 348 321 316 317 314 310 306 307 313 313 318 318 321 323 322 321 332 331 331 329 337 335 338 340 340
319 319 318 318 318 318 318 318 319 320 321 322 323 325 316 304 309 317 353 344 323 316 315 314 311 308 305 308 311 312 313 317 321 321 320 328 329 329 330 334 339 338 338 339 340
318 319 318 318 318 318 318 317 319 320 320 322 324 326 315 299 314 319 326 319 317 314 313 314 312 311 308 308 310 313 311 314 318 318 320 322 327 328 330 336 337 337 335 337 337
318 318 318 318 318 318 317 317 319 319 320 322 326 324 313 305 318 316 317 318 316 314 312 315 314 309 309 308 315 314 308 312 313 315 316 324 319 319 330 334 334 335 336 336 337
318 318 318 318 317 317 316 318 318 319 321 324 328 316 302 313 318 318 312 314 315 318 315 317 314 310 307 310 310 309 308 303 312 315 316 312 302 322 329 331 331 334 336 334 335
317 318 317 317 317 316 316 317 319 321 323 325 311 307 303 320 314 315 313 313 310 310 312 320 312 305 307 303 300 303 299 303 308 314 316 310 304 321 328 326 328 328 328 334 336
318 316 316 315 315 315 316 317 317 319 320 324 322 306 309 307 310 313 312 311 308 310 311 308 303 300 298 298 294 298 298 301 302 310 315 312 310 320 322 323 322 324 329 333 335
316 315 315 315 314 314 310 309 303 303 308 299 299 308 310 312 313 310 312 309 307 306 299 302 299 296 299 301 304 302 299 300 304 310 311 310 311 314 321 320 319 327 330 331 328
316 315 314 314 314 314 306 307 307 309 302 309 310 310 312 309 305 306 309 305 303 300 301 299 296 303 303 304 302 300 298 298 304 313 308 310 308 314 318 318 317 323 330 330 327
316 315 314 313 312 307 304 306 310 306 300 306 308 308 308 310 306 304 308 304 303 300 300 297 302 306 304 302 300 298 295 298 301 306 310 309 302 309 317 318 319 322 331 331 330
315 314 313 313 304 306 306 307 309 309 295 300 304 310 308 308 303 311 308 308 303 302 301 300 305 305 300 301 300 294 303 303 304 300 295 305 293 303 310 312 317 321 327 329 328
316 313 311 312 304 309 312 312 304 307 287 306 304 311 305 305 303 306 310 307 302 303 301 300 302 301 300 301 303 300 304 302 304 297 295 301 297 299 307 310 315 321 323 326 329
315 312 311 308 304 310 312 312 306 295 290 302 304 302 302 300 303 307 306 308 307 303 300 302 306 304 304 306 304 305 302 299 296 295 291 293 298 296 306 310 315 319 324 326 327
313 311 309 312 306 313 311 307 296 291 303 302 299 300 299 298 302 304 302 300 297 294 292 300 303 306 307 300 302 300 295 290 290 290 290 295 298 300 311 316 318 320 322 327 328
309 309 306 311 309 309 308 302 292 300 300 303 302 300 299 301 300 301 299 297 298 297 294 293 296 304 306 305 300 297 295 290 287 287 291 300 296 302 315 319 322 324 325 329 331
308 303 302 307 311 308 305 295 296 300 308 302 301 298 296 301 302 299 297 297 299 300 295 294 298 308 308 305 304 297 294 296 291 291 293 297 302 310 315 315 318 320 318 322 328
306 308 310 312 313 309 302 296 301 307 312 309 299 300 296 297 300 297 297 302 302 303 300 299 297 303 308 306 307 304 303 297 294 289 289 296 300 300 309 310 316 315 317 316 322
310 310 316 314 312 306 298 299 307 313 313 308 304 298 298 300 300 297 299 304 306 304 303 299 299 302 304 302 300 303 300 297 296 293 291 291 297 308 311 313 315 316 318 318 322
308 309 314 312 303 299 300 306 307 311 312 309 307 305 303 304 299 301 302 305 311 310 306 305 299 297 298 303 304 303 300 298 293 292 292 294 297 312 314 316 316 316 318 320 323
306 309 315 311 298 297 302 306 310 309 311 310 310 310 307 303 303 305 308 312 314 309 305 304 296 293 296 297 302 300 300 300 295 294 292 293 294 313 313 314 316 316 318 319 332
309 308 309 307 302 301 300 303 307 315 313 311 311 310 307 305 305 304 307 311 312 311 322 308 294 293 291 294 298 300 302 300 296 292 292 294 296 307 311 313 314 316 318 326 332
308 307 307 303 306 303 301 303 305 309 313 311 310 309 307 304 303 303 305 306 309 314 307 302 297 296 298 300 303 303 302 303 298 297 295 296 298 305 311 313 314 319 327 330 331
304 305 305 304 307 305 301 302 307 311 309 308 308 310 308 304 303 302 303 301 301 304 301 300 297 299 296 302 303 302 304 309 306 307 304 305 304 312 313 320 322 323 328 328 328
308 309 307 305 307 303 302 308 310 312 312 312 311 307 307 307 308 306 309 307 309 300 299 298 296 294 292 299 300 294 301 309 313 314 308 304 306 317 320 321 322 323 326 323 322
Wind_Speed
12 13 13 13 13 14 14 14 14 14 14 15 16 17 17 18 18 2 5 11 7 6 3 7 2 1 4 7 7 4 4 2 5 5 2 12 7 7 6 6 1 3 4 9 17
13 13 13 14 14 14 14 15 14 14 15 15 16 16 16 16 4 6 11 10 11 6 5 7 9 10 5 3 2 5 4 7 6 4 3 10 4 10 6 6 3 5 6 17 20
14 14 14 14 14 14 14 15 14 14 15 15 16 16 15 10 5 8 2 12 4 4 1 1 3 3 5 5 4 4 6 5 2 5 6 10 7 5 8 4 8 11 17 21 20
15 15 14 14 14 14 14 14 15 15 14 15 16 16 17 2 3 4 3 2 6 2 2 4 5 5 4 6 4 2 3 6 3 5 2 6 11 7 10 5 11 14 23 21 20
16 16 15 14 14 14 14 14 15 14 14 14 15 15 5 2 10 5 3 5 3 2 2 3 4 1 3 6 8 1 3 6 5 7 4 6 4 5 9 5 11 16 20 22 20
16 16 15 14 14 14 14 14 14 14 14 13 13 13 1 3 3 7 5 3 4 3 1 4 4 4 4 5 1 4 5 2 6 6 3 6 2 2 4 4 11 16 18 17 18
17 16 16 14 14 14 14 14 14 14 13 12 11 4 0 15 3 7 3 3 1 2 3 4 4 3 4 7 5 4 5 8 4 6 7 11 2 6 3 7 8 12 8 12 7
18 15 16 14 14 14 14 13 14 13 11 10 6 1 9 5 3 9 2 7 4 6 4 8 5 4 3 4 7 5 5 4 6 6 3 7 7 9 6 9 7 7 8 11 7
19 15 15 14 14 13 12 14 15 12 8 5 2 1 11 8 3 7 4 5 2 2 3 5 3 2 6 3 6 7 1 5 7 4 3 3 5 4 3 5 6 7 7 12 12
16 17 16 14 12 12 13 15 7 7 2 4 4 3 6 3 4 4 4 2 1 5 7 7 6 4 4 6 2 4 6 6 7 3 2 2 4 4 5 5 5 10 8 13 17
18 18 15 13 10 9 8 2 4 2 1 10 6 5 4 6 3 2 4 4 3 5 1 5 5 6 8 6 5 5 4 8 12 5 4 3 2 7 5 4 5 7 7 8 11
19 17 14 10 8 6 1 3 5 4 6 12 5 8 6 2 3 3 5 4 4 5 2 5 6 13 4 4 6 6 5 8 7 1 4 3 4 6 4 2 5 6 6 8 7
16 14 11 8 3 2 2 7 2 6 2 6 7 6 6 8 5 6 9 5 3 4 4 6 9 5 1 4 4 6 6 3 5 4 5 4 5 6 5 5 8 4 4 3 7
17 15 11 4 2 2 5 4 7 6 5 6 4 8 5 5 3 7 7 6 1 7 5 6 6 4 3 8 6 4 5 3 5 3 2 3 3 5 2 5 4 4 4 7 8
17 14 8 4 3 3 1 6 3 4 3 2 4 1 3 8 2 3 4 4 6 5 5 9 7 4 4 8 7 9 2 2 3 1 2 2 6 6 4 8 3 3 4 6 12
15 11 4 3 2 8 8 6 3 7 4 1 4 5 6 0 2 3 5 4 3 4 2 9 5 5 8 3 4 2 5 7 5 4 5 5 4 5 3 4 7 7 5 3 3
17 9 6 2 4 5 5 4 6 4 4 4 5 4 4 4 4 5 7 7 5 3 3 6 5 4 5 2 3 8 8 4 6 7 6 6 3 7 3 5 7 11 8 2 10
19 5 7 6 3 7 3 7 2 4 6 3 5 4 6 6 4 4 6 3 2 4 1 1 9 3 3 8 8 2 8 7 4 2 5 4 3 6 5 9 11 12 6 5 6
4 0 3 5 11 1 7 2 7 7 5 3 4 5 3 4 5 4 6 5 7 10 8 4 6 7 3 2 6 2 1 4 7 2 3 2 6 9 4 8 8 8 6 8 8
2 1 4 5 10 5 6 6 5 5 4 2 9 7 7 4 6 6 6 6 7 13 5 3 3 5 5 5 5 7 4 4 4 2 1 4 5 7 6 4 9 7 8 9 4
1 2 3 5 3 6 3 7 7 7 3 3 7 7 7 6 10 6 4 6 7 3 7 5 5 8 4 4 0 6 4 6 6 4 5 1 8 7 6 8 8 7 8 9 8
2 3 1 1 4 1 3 7 6 10 5 10 6 3 9 8 4 5 11 6 2 7 8 5 6 3 3 2 3 3 2 5 6 4 0 3 8 8 8 9 3 7 9 9 9
2 1 3 4 2 2 6 5 6 6 5 5 1 1 2 4 6 3 4 4 3 4 7 5 4 3 10 8 5 5 3 4 5 4 5 6 8 4 4 5 4 7 9 8 8
2 3 4 3 1 3 4 6 5 7 3 5 6 1 6 9 8 4 2 5 6 5 7 9 4 6 7 6 2 5 5 2 5 4 4 7 6 3 7 7 2 7 7 6 5
3 1 3 2 4 2 3 4 7 6 5 5 9 6 3 6 5 4 3 3 6 7 5 7 3 2 5 6 3 4 4 7 4 6 6 5 8 4 7 8 7 1 4 6 8
3 3 5 3 4 3 6 5 5 5 4 6 8 9 10 7 3 3 3 3 1 7 5 4 2 1 3 4 3 2 6 3 4 3 2 3 1 2 3 4 5 5 4 2 6
3 2 3 5 7 3 3 3 3 2 2 3 5 6 9 2 3 2 2 2 2 4 3 3 6 3 5 4 5 5 3 1 4 3 1 2 3 1 5 8 5 5 5 4 5
Wind_Direction
337 334 330 328 326 327 329 332 332 333 334 331 330 328 326 326 314 179 258 225 199 46 351 309 340 255 148 193 184 147 73 189 202 182 147 141 169 141 113 149 163 189 145 150 142
338 332 328 325 323 324 325 327 330 331 333 331 329 327 324 332 322 271 246 246 239 47 13 5 339 354 344 311 231 115 114 216 204 192 161 180 140 152 163 162 190 185 99 133 147
338 333 327 322 320 320 321 323 327 330 331 330 327 325 321 325 337 253 315 239 82 77 83 277 322 20 352 353 299 176 161 234 239 226 200 156 154 179 141 208 201 178 158 148 156
337 332 327 322 318 316 318 320 323 327 328 328 326 325 320 283 248 257 235 83 92 104 313 352 10 10 348 317 294 245 177 175 226 237 215 158 156 174 177 237 160 159 163 155 167
337 334 327 322 317 314 313 315 318 323 323 325 325 328 336 5 251 268 225 99 128 139 253 33 6 44 337 316 325 300 269 192 216 200 207 141 180 170 210 152 141 145 165 165 173
336 332 328 321 317 312 309 310 313 316 318 321 323 322 336 255 260 313 216 124 167 151 172 160 227 205 261 265 287 257 282 225 244 201 218 175 106 56 250 131 147 150 173 178 173
333 329 327 321 317 312 308 306 307 308 311 313 316 306 287 233 101 331 298 171 46 180 240 214 173 81 303 294 267 322 333 329 215 213 222 108 20 249 173 148 152 168 162 171 158
330 325 325 320 317 312 306 301 300 300 300 302 334 272 249 258 331 304 185 293 237 218 213 251 182 220 184 310 352 12 45 2 266 131 221 142 242 256 195 147 154 191 172 132 169
331 327 324 319 316 311 301 298 294 290 284 269 324 139 267 311 262 249 169 230 340 321 241 282 46 38 18 51 4 11 230 279 313 148 126 124 245 231 109 110 200 217 208 163 186
329 328 323 319 316 312 301 291 276 299 194 206 255 337 279 265 258 208 169 140 10 348 4 44 50 30 38 63 240 296 332 302 273 225 56 122 233 102 152 152 212 234 203 195 203
333 328 322 316 314 316 338 80 32 355 256 194 199 254 285 289 277 236 130 90 56 49 224 348 39 249 245 184 216 269 258 284 286 243 102 228 47 125 150 160 209 229 215 218 205
335 331 324 313 306 317 2 181 207 203 295 221 239 282 272 250 324 284 95 135 116 214 140 12 251 248 221 179 218 242 265 274 277 71 120 167 230 82 75 6 345 246 224 231 274
331 333 324 314 316 340 213 236 262 26 67 288 183 201 222 145 206 245 130 173 166 185 175 165 244 17 251 267 198 269 212 226 238 9 27 124 26 64 10 18 328 313 227 211 227
333 334 323 309 335 232 248 250 259 147 53 271 228 264 166 167 258 215 172 139 198 225 172 230 279 253 273 252 144 248 198 203 283 60 270 112 263 112 151 226 263 245 234 218 204
331 332 312 219 306 198 221 334 150 62 20 163 205 0 148 146 183 226 178 70 189 212 91 257 285 311 277 220 162 230 102 59 348 137 35 44 88 260 118 231 227 230 203 216 225
328 327 286 195 240 245 308 310 66 46 259 257 163 165 115 162 295 63 149 81 160 175 234 246 251 216 220 273 183 62 63 42 56 52 22 309 123 276 281 274 298 281 271 243 213
319 283 207 215 224 318 280 60 47 137 323 189 190 148 145 179 233 169 176 195 169 111 332 315 258 253 192 220 13 72 58 352 356 9 229 327 34 243 273 297 248 271 258 222 131
331 193 230 239 283 350 47 52 175 225 250 278 139 100 169 158 238 160 121 211 236 84 107 141 333 292 169 186 177 126 137 149 226 233 270 334 330 262 228 282 271 265 266 175 140
340 183 262 250 205 81 70 83 216 210 242 105 46 96 284 231 171 127 175 214 211 171 172 158 278 293 183 127 115 135 54 182 105 358 53 261 284 295 231 285 280 282 267 159 100
299 298 257 140 154 85 79 236 252 227 333 312 181 161 201 227 156 157 169 211 220 190 153 201 347 267 320 63 23 112 150 53 14 124 258 302 274 243 258 230 276 276 354 357 23
11 42 280 174 105 53 163 237 266 244 245 219 220 153 191 186 178 167 208 273 195 143 139 144 103 292 46 29 251 6 16 65 111 107 155 228 266 228 206 195 234 262 344 329 339
343 56 304 198 64 46 190 209 293 294 302 246 174 173 173 173 140 167 191 241 42 131 147 185 161 112 206 245 323 159 81 108 113 275 8 154 270 325 165 194 329 329 310 298 328
61 262 311 86 168 259 288 290 257 292 285 337 58 159 139 119 103 130 100 346 178 140 160 184 28 46 344 355 352 55 347 105 96 76 203 145 262 23 123 166 234 303 302 339 321
51 63 334 45 108 123 332 286 308 307 310 12 334 116 94 44 21 88 80 36 20 51 62 88 83 142 175 212 228 323 333 99 128 129 196 225 260 166 203 195 196 272 301 334 18
24 31 171 265 278 243 181 265 291 318 347 4 4 33 130 80 38 50 24 22 28 356 57 87 122 155 211 231 232 245 297 328 195 213 172 291 197 261 206 173 209 185 57 10 62
57 38 343 272 291 307 170 232 163 254 59 0 86 34 50 85 148 113 107 51 113 10 59 18 196 107 277 279 9 307 326 23 37 89 67 124 299 275 113 121 87 115 125 48 50
327 334 100 293 325 21 307 330 24 173 31 95 136 77 49 63 186 243 196 164 150 146 148 120 133 106 258 323 352 14 356 30 85 14 223 250 245 129 76 71 72 83 99 97 65